Flag for U.S.A. Weather past 2 weeks in Post Falls, Idaho, U.S.A.

Now
68 °F

Partly sunny.


Feels Like: 68 °F
Forecast: 59 / 78 °F
Wind: 12 mph from North

Location: Coeur d'Alene Weather Reporting System

Current Time: May 30, 2015 at 11:59:03 AM

Latest Report: May 30, 2015 at 11:35 AM


Visibility: 10 mi

Pressure: 29.92 "Hg

Humidity: 64%

Dew point: 55 °F

Location of Post FallsLocation

Historic Weather in Post Falls — Graph

°F

Post Falls temperature yesterday

Maximum temperature yesterday: 81 °F (at 2:55 PM)
Minimum temperature yesterday: 52 °F (at 4:55 AM)
Average temperature yesterday: 66 °F

Past Weeks' High & Low Weather Summary

 TemperatureHumidityPressure
High82 °F (May 21, 3:15 PM)100% (May 18, 3:35 AM)30.15 "Hg (May 18, 3:35 AM)
Low43 °F (May 27, 5:15 AM)11% (May 20, 8:15 AM)29.65 "Hg (May 15, 3:15 PM)
Average62 °F57%29.95 "Hg
* Reported May 15 10:15 AM — May 30 10:35 AM, Post Falls, Weather by CustomWeather, © 2015

Note: Actual official high and low records may vary slightly from our data, if they occured in-between our weather recording intervals... More about our weather records

Advertising

Post Falls weather history for previous 24 hours

 ConditionsComfort  
Time TempWeatherWind HumidityBarometerVisibility
10:35 AM
Sat, May 30
68 °FSunny.16 mph64%29.93 "Hg10 mi
10:15 AM68 °FSunny.16 mph64%29.93 "Hg10 mi
9:55 AM66 °FSunny.17 mph68%29.93 "Hg10 mi
9:35 AM63 °FScattered clouds.14 mph73%29.93 "Hg10 mi
9:15 AM66 °FScattered clouds.13 mph64%29.92 "Hg10 mi
8:55 AM66 °FSunny.12 mph68%29.93 "Hg10 mi
8:35 AM64 °FSunny.13 mph73%29.92 "Hg10 mi
8:15 AM63 °FSunny.13 mph77%29.93 "Hg10 mi
7:55 AM61 °FSunny.13 mph77%29.94 "Hg10 mi
7:35 AM61 °FSunny.13 mph77%29.94 "Hg10 mi
7:15 AM59 °FSunny.14 mph82%29.94 "Hg10 mi
6:55 AM57 °FSunny.12 mph82%29.94 "Hg10 mi
6:35 AM57 °FSunny.12 mph82%29.94 "Hg10 mi
6:15 AM57 °FSunny.14 mph82%29.94 "Hg10 mi
5:55 AM57 °FSunny.10 mph82%29.94 "Hg10 mi
5:35 AM55 °FPassing clouds.7 mph88%29.93 "Hg10 mi
5:15 AM55 °FPassing clouds.6 mph82%29.93 "Hg10 mi
4:55 AM57 °FPassing clouds.6 mph82%29.93 "Hg10 mi
4:35 AM59 °FOvercast.7 mph77%29.94 "Hg10 mi
4:15 AM59 °FOvercast.6 mph77%29.95 "Hg10 mi
3:55 AM61 °FOvercast.9 mph68%29.96 "Hg10 mi
3:35 AM61 °FMostly cloudy.6 mph68%29.96 "Hg10 mi
3:15 AM61 °FOvercast.3 mph68%29.97 "Hg10 mi
2:55 AM61 °FOvercast.9 mph68%29.96 "Hg10 mi
2:35 AM61 °FThundershowers. Overcast.5 mph68%29.97 "Hg10 mi
2:15 AM61 °FThundershowers. Overcast.7 mph68%29.97 "Hg10 mi
1:55 AM59 °FPartly cloudy.6 mph72%29.96 "Hg10 mi
1:35 AM59 °FPassing clouds.7 mph68%29.94 "Hg10 mi
1:15 AM59 °FPassing clouds.3 mph68%29.93 "Hg10 mi
12:55 AM61 °FPassing clouds.9 mph68%29.94 "Hg10 mi
12:35 AM59 °FPassing clouds.8 mph72%29.95 "Hg10 mi
12:15 AM57 °FPassing clouds.10 mph77%29.94 "Hg10 mi
11:55 PM
Fri, May 29
57 °FPassing clouds.14 mph77%29.95 "Hg10 mi
11:35 PM59 °FPassing clouds.16 mph72%29.96 "Hg10 mi
11:15 PM61 °FPassing clouds.17 mph68%29.97 "Hg10 mi
10:55 PM63 °FPassing clouds.18 mph59%29.98 "Hg10 mi
10:35 PM63 °FPassing clouds.17 mph59%29.97 "Hg10 mi
10:15 PM64 °FPassing clouds.20 mph56%29.97 "Hg10 mi
9:55 PM64 °FPassing clouds.16 mph56%29.95 "Hg10 mi
9:35 PM66 °FPassing clouds.20 mph56%29.96 "Hg10 mi
9:15 PM68 °FPartly sunny.3 mph56%29.95 "Hg10 mi
8:55 PM66 °FScattered clouds.8 mph52%29.92 "Hg10 mi
8:35 PM66 °FSunny.9 mph56%29.91 "Hg10 mi
7:55 PM70 °FSunny.9 mph53%29.90 "Hg10 mi
7:35 PM72 °FSunny.9 mph50%29.90 "Hg10 mi
7:15 PM75 °FSunny.9 mph44%29.90 "Hg10 mi
6:55 PM77 °FSunny.6 mph30%29.90 "Hg10 mi
6:35 PM79 °FSunny.5 mph32%29.90 "Hg10 mi
6:15 PM79 °FSunny.5 mph32%29.90 "Hg10 mi
5:55 PM79 °FSunny.5 mph32%29.90 "Hg10 mi
5:35 PM79 °FSunny.No wind30%29.91 "Hg10 mi
5:15 PM81 °FSunny.5 mph30%29.92 "Hg10 mi
4:55 PM79 °FSunny.3 mph30%29.92 "Hg10 mi
4:35 PM81 °FSunny.6 mph28%29.93 "Hg10 mi
4:15 PM81 °FSunny.6 mph30%29.93 "Hg10 mi
3:55 PM81 °FSunny.3 mph30%29.94 "Hg10 mi
3:35 PM81 °FSunny.5 mph30%29.94 "Hg10 mi
3:15 PM81 °FSunny.No wind32%29.95 "Hg10 mi
2:55 PM81 °FSunny.7 mph32%29.96 "Hg10 mi
2:35 PM79 °FSunny.5 mph37%29.97 "Hg10 mi
2:15 PM79 °FSunny.6 mph39%29.98 "Hg10 mi
1:35 PM77 °FSunny.No wind39%30.00 "Hg10 mi
1:15 PM77 °FSunny.No wind42%30.00 "Hg10 mi
12:55 PM75 °FSunny.6 mph44%30.00 "Hg10 mi
12:35 PM75 °FSunny.6 mph41%30.01 "Hg10 mi
12:15 PM73 °FSunny.7 mph41%30.02 "Hg10 mi
11:55 AM75 °FSunny.9 mph44%30.03 "Hg10 mi
11:35 AM73 °FSunny.9 mph50%30.03 "Hg10 mi
11:15 AM72 °FSunny.9 mph53%30.04 "Hg10 mi
Weather by CustomWeather, © 2015

See weather overviewHow to use our weather pages